Location: Stara Lesna
(49.1528°N, 20.2911°E)
Time: 03:30:55
(UTC+02:00)

Meteor 1-10 Rocket - Pass Details

Date: 13 July 2020
Orbit: 835 x 911 km, 81.3° (Epoch: 11 August)

Event Time Altitude Azimuth Distance (km) Brightness Sun altitude
Rises 00:47:34 0° 345° (NNW) 3,407 8.8 -19.1°
Reaches altitude 10° 00:50:02 10° 342° (NNW) 2,463 7.7 -19.0°
Maximum altitude 00:55:29 59° 264° (W) 964 4.4 -19.0°
Enters shadow 00:57:47 34° 200° (SSW) 1,361 4.8 -19.0°
